This is the latest recevied weather packets stored in our database for station/object VK4NB-13. If no packets are shown the sender has not sent any weather packets the latest 10 day(s).
| Time | Temp. | Humidity | Pressure | Rain* | Wind** | Luminosity | Snow |
|---|---|---|---|---|---|---|---|
| 1777824902 | 21.11° C | 99% | 1016.4 hPa | 0 mm | - | - | - |
| 1777823702 | 21.11° C | 99% | 1016.6 hPa | 0 mm | - | - | - |
| 1777823402 | 21.11° C | 98% | 1016.6 hPa | 0 mm | - | - | - |
| 1777822802 | 21.11° C | 98% | 1016.8 hPa | 0 mm | - | - | - |
| 1777822524 | 21.11° C | 98% | 1016.9 hPa | 0 mm | - | - | - |
| 1777822203 | 21.11° C | 98% | 1016.8 hPa | 0 mm | - | - | - |
| 1777821602 | 21.67° C | 98% | 1016.9 hPa | 0 mm | - | - | - |
| 1777820423 | 21.11° C | 99% | 1017.3 hPa | 0 mm | - | - | - |
| 1777820102 | 21.11° C | 99% | 1016.7 hPa | 0 mm | - | - | - |
| 1777819802 | 21.11° C | 99% | 1017.1 hPa | 0 mm | - | - | - |
| 1777819202 | 21.11° C | 99% | 1017.2 hPa | 0 mm | - | - | - |
| 1777817402 | 21.11° C | 99% | 1017.5 hPa | 0 mm | - | - | - |
| 1777814402 | 21.67° C | 99% | 1017.7 hPa | 0 mm | - | - | - |
| 1777809002 | 21.67° C | 98% | 1018.1 hPa | 0.25 mm | - | - | - |
| 1777806602 | 22.22° C | 99% | 1017.9 hPa | 0 mm | - | - | - |
| 1777802702 | 21.67° C | 99% | 1017.7 hPa | 0 mm | - | - | - |
| 1777802103 | 21.67° C | 99% | 1017.5 hPa | 0 mm | - | - | - |
| 1777800903 | 21.67° C | 99% | 1017.1 hPa | 0 mm | - | - | - |
| 1777799403 | 21.67° C | 99% | 1016.8 hPa | 1.52 mm | - | - | - |
| 1777795524 | 22.22° C | 98% | 1016.4 hPa | 1.02 mm | - | - | - |
| 1777795203 | 22.22° C | 98% | 1016.5 hPa | 0.51 mm | - | - | - |
| 1777794903 | 22.22° C | 98% | 1016.5 hPa | 0.51 mm | - | - | - |
| 1777794603 | 22.22° C | 98% | 1016.3 hPa | 0.25 mm | - | - | - |
| 1777793704 | 22.78° C | 97% | 1016.4 hPa | 0 mm | - | - | - |
| 1777789224 | 23.89° C | 91% | 1015.8 hPa | 0 mm | - | - | - |
* Rain latest hour (hover to see other rain measurements)
** Current wind speed in m/s (hover to see current wind gust speed)